Location: Brecksville
(41.3198°N, 81.6268°W)
Time: 21:30:25
(UTC+00:00)

Daily predictions for brighter satellites

Satellite Brightness Start Highest point End
(mag) Time Altitude Azimuth Time Altitude Azimuth Time Altitude Azimuth
STARLINK-61 4.2 23:27:30 10° SSW 23:31:04 36° SE 23:34:41 10° ENE
Cosmos 1992 Rocket 4.2 23:27:49 10° S 23:32:54 54° ESE 23:38:00 10° NNE
Cosmos 2173 Rocket 4.1 23:27:07 10° S 23:33:23 66° E 23:39:43 10° NNE
Cosmos 2228 Rocket 3.1 23:29:49 10° N 23:34:20 72° E 23:38:53 10° SSE
STARLINK-64 4.4 23:32:33 10° S 23:35:36 27° SE 23:38:41 10° ENE
Cosmos 1833 Rocket 3.0 23:30:24 10° NNW 23:36:04 77° WSW 23:41:41 10° SSE
Cosmos 1782 3.0 23:32:11 10° N 23:36:07 50° E 23:39:59 10° SSE
Cosmos 1486 Rocket 4.0 23:31:10 10° NNW 23:36:25 79° ENE 23:41:39 10° SSE
STARLINK-48 3.7 23:37:57 10° WSW 23:41:50 68° NW 23:45:43 10° NE
Cosmos 1862 4.2 23:38:34 10° SSE 23:42:00 28° E 23:45:25 10° NNE
SL-4 R/B 3.2 23:37:59 10° NW 23:42:20 34° NNE 23:46:12 11° E
H-2A R/B 3.6 23:40:02 10° E 23:43:10 16° ENE 23:46:20 10° NNE
CZ-4 R/B 4.4 23:40:16 10° SSE 23:44:22 80° ENE 23:48:30 10° N
Cosmos 1354 Rocket 4.2 23:41:49 10° N 23:46:58 49° ENE 23:52:03 10° SE
Cosmos 2100 Rocket 4.1 23:40:36 10° S 23:46:59 89° E 23:53:22 10° N
CSL-04 Rocket 3.8 23:45:27 10° SSE 23:50:53 60° ENE 23:56:19 10° N
NOSS 3-1 (C) 3.9 23:48:06 10° S 23:52:49 32° ESE 23:58:04 10° NE
Cosmos 2278 Rocket 3.7 23:47:40 10° SW 23:52:52 37° WNW 23:58:06 10° N
NOSS 8 (A) 4.4 23:50:01 10° SW 23:53:25 72° NW 23:56:26 10° NNE
Cosmos 1805 Rocket 3.5 23:50:50 10° S 23:55:12 69° E 23:59:33 10° NNE
